EW3861 Weather Reports


time (UTC)temp
F
wind
direction
speed
knots
gust
knots
rain 1hr
in
rain 24hr
in
rain mn
in
humidity
%
barometer
mb
20260906210051 68 207 0.0 0.0 0.00 0.00 0.00 74 1013.2
20260906204546 69 207 0.0 0.0 0.00 0.00 0.00 70 1013.2
20260906203056 68 207 0.0 0.0 0.00 0.00 0.00 71 1013.1
20260906201540 67 210 0.0 0.0 0.00 0.00 0.00 76 1013.1
20260906200043 66 210 0.0 0.0 0.00 0.00 0.00 79 1013.2
20260906194533 65 210 0.0 0.0 0.00 0.00 0.00 84 1013.2
20260906193048 64 84 0.0 0.0 0.00 0.00 0.00 85 1013.3
20260906191538 63 84 0.0 0.0 0.00 0.00 0.00 84 1013.4
20260906190032 63 84 0.0 0.0 0.00 0.00 0.00 86 1013.3
20260906184535 63 84 0.0 0.0 0.00 0.00 0.00 87 1013.7
20260906183030 63 84 0.0 0.0 0.00 0.00 0.00 86 1013.9
20260906181548 64 84 0.0 0.0 0.00 0.00 0.00 82 1013.9
20260906180035 64 98 0.0 0.0 0.00 0.00 0.00 81 1013.6
20260906174530 65 99 0.0 0.0 0.00 0.00 0.00 82 1013.7
20260906173028 65 99 0.0 0.0 0.00 0.00 0.00 80 1013.8
20260906171528 65 99 0.0 0.0 0.00 0.00 0.00 78 1013.6
20260906170026 64 99 0.0 0.0 0.00 0.00 0.00 80 1013.6
20260906164523 63 99 0.0 0.0 0.00 0.00 0.00 84 1013.9
20260906163020 63 43 0.0 0.0 0.00 0.00 0.00 83 1013.9
20260906161519 62 109 0.0 0.0 0.00 0.00 0.00 86 1014.1
20260906160018 62 109 0.0 0.0 0.00 0.00 0.00 85 1014.3
20260906154533 62 112 0.0 0.0 0.00 0.00 0.00 87 1014.4
20260906153019 62 96 0.0 0.0 0.00 0.00 0.00 89 1014.4
20260906151514 62 96 0.0 0.0 0.00 0.00 0.00 90 1014.3
20260906150012 61 96 0.0 0.0 0.00 0.00 0.00 93 1014.3
20260906144510 61 80 0.0 0.0 0.00 0.00 0.00 95 1014.3
20260906143010 61 80 0.0 0.0 0.00 0.00 0.00 96 1014.3
20260906141508 60 80 0.0 0.0 0.00 0.00 0.00 96 1014.2
20260906140008 60 80 0.0 0.0 0.00 0.00 0.00 96 1014.2
20260906134506 60 81 0.0 0.0 0.00 0.00 0.00 96 1014.2
20260906133006 60 82 0.0 0.0 0.00 0.00 0.00 96 1014.3
20260906131510 60 81 0.0 0.0 0.00 0.00 0.00 96 1014.3
20260906130004 60 79 0.0 0.0 0.00 0.00 0.00 96 1014.1
20260906124504 59 79 0.0 0.0 0.00 0.00 0.00 96 1014.1
20260906123002 59 79 0.0 0.0 0.00 0.00 0.00 96 1014.1
20260906121500 59 79 0.0 0.0 0.00 0.00 0.00 96 1013.9
20260906120059 59 79 0.0 0.0 0.00 0.00 0.00 96 1013.8
20260906114601 59 79 0.0 0.0 0.00 0.00 0.00 96 1013.7
20260906113057 58 160 0.0 0.0 0.00 0.00 0.00 96 1013.5
20260906111555 59 72 0.0 0.0 0.00 0.00 0.00 96 1013.3
20260906110053 58 72 0.0 0.0 0.00 0.00 0.00 95 1013.1
20260906104557 59 72 0.0 0.0 0.00 0.00 0.00 95 1012.9
20260906103050 59 72 0.0 0.0 0.00 0.00 0.00 95 1012.8
20260906101549 59 72 0.0 0.0 0.00 0.00 0.00 95 1012.8
20260906100047 59 72 0.0 0.0 0.00 0.00 0.00 95 1012.8
20260906094601 59 72 0.0 0.0 0.00 0.00 0.00 95 1012.7
20260906093105 60 72 0.0 0.0 0.00 0.00 0.00 95 1012.5
20260906091543 60 72 0.0 0.0 0.00 0.00 0.00 96 1012.1
20260906090040 60 72 0.0 0.0 0.00 0.00 0.00 96 1011.9
20260906084539 60 72 0.0 0.0 0.00 0.00 0.00 95 1011.9
20260906083046 60 72 0.0 0.0 0.00 0.00 0.00 95 1011.7
20260906081540 60 72 0.0 0.0 0.00 0.00 0.00 95 1011.7
20260906080041 59 72 0.0 0.0 0.00 0.00 0.00 95 1011.6
20260906074537 59 72 0.0 0.0 0.00 0.00 0.00 95 1011.4
20260906073036 59 72 0.0 0.0 0.00 0.00 0.00 94 1011.4
20260906071537 59 72 0.0 0.0 0.00 0.00 0.00 94 1011.5
20260906070035 59 72 0.0 0.0 0.00 0.00 0.00 94 1011.5
20260906064534 59 72 0.0 0.0 0.00 0.00 0.00 94 1011.5
20260906063035 59 72 0.0 0.0 0.00 0.00 0.00 93 1011.5
20260906061532 59 72 0.0 0.0 0.00 0.00 0.00 93 1011.5
20260906060031 59 72 0.0 0.0 0.00 0.00 0.00 93 1011.5
20260906054532 60 72 0.0 0.0 0.00 0.00 0.00 92 1011.5
20260906053029 60 72 0.0 0.0 0.00 0.00 0.00 92 1011.8
20260906051536 60 72 0.0 0.0 0.00 0.00 0.00 92 1011.8
20260906050028 60 72 0.0 0.0 0.00 0.00 0.00 91 1011.9
20260906044525 60 72 0.0 0.0 0.00 0.00 0.00 91 1011.8
20260906043025 60 72 0.0 0.0 0.00 0.00 0.00 91 1011.8
20260906041524 60 72 0.0 0.0 0.00 0.00 0.00 91 1011.7
20260906040029 61 72 0.0 0.0 0.00 0.00 0.00 90 1011.7
20260906034522 61 72 0.0 0.0 0.00 0.00 0.00 90 1011.6
20260906033035 61 72 0.0 0.0 0.00 0.00 0.00 90 1011.4
20260906031525 61 72 0.0 0.0 0.00 0.00 0.00 90 1011.3
20260906030021 61 72 0.0 0.0 0.00 0.00 0.00 89 1011.3
20260906024538 61 72 0.0 0.0 0.00 0.00 0.00 89 1011.4
20260906023024 62 72 0.0 0.0 0.00 0.00 0.00 88 1011.5
20260906021520 62 72 0.0 0.0 0.00 0.00 0.00 88 1011.4
20260906020019 62 72 0.0 0.0 0.00 0.00 0.00 88 1011.4
20260906014530 62 72 0.0 0.0 0.00 0.00 0.00 87 1011.5
20260906013036 62 72 0.0 0.0 0.00 0.00 0.00 87 1011.7
20260906011517 63 72 0.0 0.0 0.00 0.00 0.00 86 1011.5
20260906010017 63 72 0.0 0.0 0.00 0.00 0.00 86 1011.4
20260906004515 63 72 0.0 0.0 0.00 0.00 0.00 86 1011.4
20260906003013 63 72 0.0 0.0 0.00 0.00 0.00 86 1011.1
20260906001513 63 72 0.0 0.0 0.00 0.00 0.00 85 1011.0
20260906000011 64 72 0.0 0.0 0.00 0.00 0.00 84 1010.8
20260905234510 64 72 0.0 0.0 0.00 0.00 0.00 84 1010.8
20260905233010 64 72 0.0 0.0 0.00 0.00 0.00 83 1010.7
20260905231508 65 72 0.0 0.0 0.00 0.00 0.00 82 1010.6
20260905230008 65 72 0.0 0.0 0.00 0.00 0.00 82 1010.5
20260905224507 66 72 0.0 0.0 0.00 0.00 0.00 82 1010.5
20260905223006 66 72 0.0 0.0 0.00 0.00 0.00 80 1010.6
20260905221505 67 72 0.0 0.0 0.00 0.00 0.00 80 1010.5
20260905220003 67 72 0.0 0.0 0.00 0.00 0.00 79 1010.3
20260905214603 68 71 0.0 0.0 0.00 0.00 0.00 77 1010.0
20260905213105 68 36 0.0 0.0 0.00 0.00 0.00 77 1009.9
20260905211602 69 360 0.0 0.0 0.00 0.00 0.00 77 1009.7